DW6064 Weather Reports


Display with metric or nautical units.
time (UTC)temp
F
wind
direction
speed
MPH
gust
MPH
rain 1hr
in
rain 24hr
in
rain mn
in
humidity
%
barometer
mb
20260904042534 71 168 7.0 8.0 0.02 0.22 0.00 90 1014.0
20260904042035 71 180 5.0 7.0 0.03 0.22 0.00 89 1014.2
20260904041537 71 161 3.0 5.0 0.03 0.22 0.00 90 1014.1
20260904041035 71 138 0.0 5.0 0.03 0.22 0.00 90 1014.1
20260904040557 71 138 1.0 9.0 0.04 0.22 0.00 89 1014.2
20260904040034 71 144 5.0 9.0 0.04 0.22 0.00 89 1014.0
20260904035557 71 174 4.0 6.0 0.05 0.22 0.22 88 1014.3
20260904035036 71 144 3.0 4.0 0.05 0.22 0.22 88 1014.5
20260904034532 72 144 1.0 8.0 0.06 0.22 0.22 88 1014.6
20260904034030 72 138 5.0 9.0 0.06 0.22 0.22 88 1014.7
20260904033551 72 132 6.0 9.0 0.07 0.22 0.22 87 1014.9
20260904033030 72 128 6.0 9.0 0.07 0.21 0.21 86 1014.9
20260904032526 72 196 1.0 6.0 0.07 0.20 0.20 87 1015.1
20260904032051 72 196 1.0 6.0 0.07 0.19 0.19 86 1015.3
20260904031527 72 185 2.0 6.0 0.07 0.19 0.19 86 1015.8
20260904031032 72 185 5.0 6.0 0.07 0.19 0.19 87 1015.9
20260904030529 72 255 1.0 8.0 0.06 0.18 0.18 86 1016.1
20260904030029 73 255 0.0 8.0 0.07 0.18 0.18 85 1016.2
20260904025551 73 264 1.0 9.0 0.06 0.17 0.17 85 1016.3
20260904025029 73 278 4.0 9.0 0.06 0.17 0.17 85 1016.3
20260904024547 74 269 1.0 5.0 0.05 0.16 0.16 86 1016.2
20260904024025 74 247 1.0 5.0 0.05 0.16 0.16 87 1016.2
20260904023542 74 151 1.0 5.0 0.04 0.15 0.15 87 1016.1
20260904023042 74 187 2.0 6.0 0.03 0.14 0.14 87 1016.2
20260904022539 74 187 4.0 6.0 0.02 0.13 0.13 85 1016.1
20260904022038 75 215 2.0 7.0 0.02 0.12 0.12 85 1016.0
20260904021535 75 184 3.0 5.0 0.02 0.12 0.12 84 1015.7
20260904021033 75 181 3.0 8.0 0.02 0.12 0.12 83 1015.7
20260904020532 75 184 2.0 10.0 0.02 0.12 0.12 82 1015.2
20260904020031 75 175 6.0 13.0 0.01 0.11 0.11 81 1014.6
20260904015529 76 152 11.0 13.0 0.01 0.11 0.11 81 1014.7
20260904015031 76 154 6.0 11.0 0.01 0.11 0.11 80 1014.3
20260904014527 76 143 3.0 17.0 0.01 0.11 0.11 77 1014.0
20260904014051 76 222 5.0 20.0 0.01 0.11 0.11 77 1014.3
20260904013528 77 299 10.0 20.0 0.01 0.11 0.11 77 1014.0
20260904013028 78 338 8.0 28.0 0.01 0.11 0.11 77 1013.8
20260904012525 79 274 14.0 35.0 0.01 0.11 0.11 76 1014.8
20260904012044 80 272 15.0 35.0 0.00 0.10 0.10 82 1015.1
20260904011543 81 148 0.0 2.0 0.00 0.10 0.10 85 1014.3
20260904011041 81 148 0.0 0.0 0.00 0.10 0.10 84 1014.1
20260904010538 81 148 0.0 1.0 0.00 0.10 0.10 84 1013.9
20260904010037 81 148 0.0 2.0 0.00 0.10 0.10 84 1013.7
20260904005535 81 148 0.0 5.0 0.00 0.10 0.10 82 1013.8
20260904005033 81 148 2.0 5.0 0.00 0.10 0.10 82 1013.8
20260904004529 81 131 2.0 3.0 0.00 0.10 0.10 81 1013.8
20260904004052 82 131 2.0 3.0 0.00 0.10 0.10 81 1013.7
20260904003529 82 131 1.0 3.0 0.00 0.10 0.10 81 1013.7
20260904003054 82 131 0.0 5.0 0.00 0.10 0.10 81 1013.8
20260904002530 82 131 3.0 5.0 0.00 0.10 0.10 80 1013.7
20260904002033 82 141 3.0 5.0 0.00 0.10 0.10 80 1013.7
20260904001531 82 175 2.0 4.0 0.00 0.10 0.10 80 1013.7
20260904001030 82 175 2.0 4.0 0.00 0.10 0.10 79 1013.9
20260904000552 83 175 2.0 4.0 0.00 0.10 0.10 79 1013.9
20260904000031 83 175 2.0 4.0 0.00 0.10 0.10 79 1014.2
20260903235528 83 175 3.0 4.0 0.00 0.10 0.10 79 1014.2
20260903235027 83 178 2.0 3.0 0.00 0.10 0.10 78 1014.1
20260903234524 83 178 2.0 3.0 0.00 0.10 0.10 78 1014.2
20260903234042 83 178 2.0 4.0 0.00 0.10 0.10 77 1014.3
20260903233540 83 178 3.0 4.0 0.00 0.10 0.10 77 1014.4
20260903233039 84 140 2.0 3.0 0.00 0.10 0.10 76 1014.3
20260903232601 84 140 2.0 3.0 0.00 0.10 0.10 76 1014.0
20260903232039 84 140 2.0 3.0 0.00 0.10 0.10 75 1013.9
20260903231536 84 140 0.0 5.0 0.00 0.10 0.10 75 1013.6
20260903231034 85 119 2.0 5.0 0.00 0.10 0.10 74 1013.3
20260903230531 85 128 3.0 6.0 0.00 0.10 0.10 74 1013.1
20260903230030 85 182 2.0 3.0 0.00 0.10 0.10 73 1013.2
20260903225532 85 182 2.0 3.0 0.00 0.10 0.10 73 1013.3
20260903225052 85 182 1.0 5.0 0.00 0.10 0.10 73 1013.4
20260903224528 86 182 2.0 5.0 0.00 0.10 0.10 72 1013.4
20260903224027 86 182 3.0 5.0 0.00 0.10 0.10 71 1013.4
20260903223524 86 182 3.0 6.0 0.00 0.10 0.10 71 1013.3
20260903223043 86 164 4.0 6.0 0.00 0.10 0.10 71 1013.3
20260903222540 86 167 4.0 7.0 0.00 0.10 0.10 70 1013.4
20260903222040 86 186 3.0 7.0 0.00 0.10 0.10 70 1013.4
20260903221535 87 178 5.0 9.0 0.00 0.10 0.10 69 1013.2
20260903221034 87 168 6.0 9.0 0.00 0.10 0.10 69 1013.2
20260903220531 87 183 4.0 8.0 0.00 0.10 0.10 69 1013.3
20260903220031 87 130 5.0 8.0 0.00 0.10 0.10 68 1013.3
20260903215531 87 132 6.0 8.0 0.00 0.10 0.10 68 1013.1
20260903215031 87 171 5.0 8.0 0.00 0.10 0.10 67 1013.2
20260903214529 88 161 6.0 9.0 0.00 0.10 0.10 67 1013.2
20260903214029 88 188 6.0 12.0 0.00 0.10 0.10 66 1013.2
20260903213552 88 195 9.0 12.0 0.00 0.10 0.10 65 1013.3
20260903213033 88 190 5.0 9.0 0.00 0.10 0.10 66 1013.2
20260903212532 88 150 7.0 9.0 0.00 0.10 0.10 66 1013.3
20260903212056 88 161 7.0 10.0 0.00 0.10 0.10 66 1013.3
20260903211534 88 138 6.0 10.0 0.00 0.10 0.10 65 1013.4
20260903211031 88 155 5.0 10.0 0.00 0.10 0.10 66 1013.2
20260903210530 88 168 6.0 11.0 0.00 0.10 0.10 67 1013.3
20260903210028 87 205 6.0 11.0 0.00 0.10 0.10 66 1013.4
20260903205526 87 168 8.0 11.0 0.00 0.10 0.10 67 1013.3
20260903205025 87 183 8.0 11.0 0.00 0.10 0.10 66 1013.3
20260903204543 87 189 7.0 13.0 0.00 0.10 0.10 66 1013.4
20260903204043 87 178 9.0 13.0 0.00 0.10 0.10 67 1013.5
20260903203541 88 200 10.0 13.0 0.00 0.10 0.10 65 1013.7
20260903203040 88 209 9.0 11.0 0.00 0.10 0.10 67 1013.5
20260903202539 88 174 7.0 15.0 0.00 0.10 0.10 66 1013.5
20260903202103 88 236 4.0 15.0 0.00 0.10 0.10 66 1013.5
20260903201540 87 180 9.0 14.0 0.00 0.10 0.10 66 1013.6
20260903201042 88 194 10.0 13.0 0.00 0.10 0.10 65 1013.9
20260903200541 87 168 11.0 15.0 0.00 0.10 0.10 65 1013.9
20260903200039 88 185 10.0 15.0 0.00 0.10 0.10 66 1013.9
20260903195535 88 160 7.0 11.0 0.00 0.10 0.10 65 1013.9
20260903195036 87 161 7.0 13.0 0.00 0.10 0.10 67 1013.9
20260903194531 87 217 9.0 13.0 0.00 0.10 0.10 64 1014.1
20260903194031 88 178 9.0 13.0 0.00 0.10 0.10 66 1014.1
20260903193553 87 153 7.0 10.0 0.00 0.10 0.10 66 1014.1
20260903193031 87 191 5.0 12.0 0.00 0.10 0.10 66 1014.3
20260903192529 86 219 6.0 12.0 0.00 0.10 0.10 65 1014.3
20260903192028 86 205 5.0 13.0 0.00 0.10 0.10 65 1014.4
20260903191526 86 210 6.0 13.0 0.00 0.10 0.10 68 1014.4
20260903191025 86 183 8.0 12.0 0.00 0.10 0.10 67 1014.7
20260903190543 85 186 5.0 11.0 0.00 0.10 0.10 68 1014.7
20260903190026 85 238 9.0 12.0 0.00 0.10 0.10 67 1014.8
20260903185544 85 209 3.0 9.0 0.00 0.10 0.10 67 1014.9
20260903185044 85 227 3.0 13.0 0.00 0.10 0.10 70 1015.0
20260903184541 85 191 10.0 13.0 0.00 0.10 0.10 69 1015.1
20260903184041 84 188 10.0 13.0 0.00 0.10 0.10 70 1015.1
20260903183537 84 232 8.0 16.0 0.00 0.10 0.10 72 1015.2
20260903183036 83 180 11.0 16.0 0.00 0.10 0.10 71 1015.3
20260903182532 83 190 9.0 14.0 0.00 0.10 0.10 72 1015.3
20260903182032 83 201 9.0 14.0 0.00 0.10 0.10 71 1015.4
20260903181529 83 213 9.0 16.0 0.00 0.10 0.10 71 1015.4
20260903181028 83 181 8.0 16.0 0.00 0.10 0.10 71 1015.4
20260903180526 83 153 7.0 15.0 0.00 0.10 0.10 73 1015.4
20260903180051 83 251 4.0 14.0 0.00 0.10 0.10 74 1015.5
20260903175528 83 203 7.0 15.0 0.00 0.11 0.10 73 1015.6
20260903175052 82 168 8.0 17.0 0.00 0.11 0.10 72 1015.6
20260903174549 82 221 5.0 13.0 0.00 0.11 0.10 70 1015.8
20260903174027 81 236 5.0 14.0 0.00 0.11 0.10 73 1015.8
20260903173530 81 198 7.0 14.0 0.00 0.11 0.10 74 1015.9
20260903173049 81 180 6.0 13.0 0.00 0.11 0.10 75 1016.1
20260903172546 80 192 6.0 13.0 0.00 0.11 0.10 76 1016.0
20260903172044 79 194 8.0 13.0 0.00 0.11 0.10 78 1016.2
20260903171541 79 207 7.0 13.0 0.00 0.11 0.10 77 1016.3
20260903171040 78 173 11.0 15.0 0.00 0.11 0.10 78 1016.4
20260903170538 78 184 11.0 15.0 0.00 0.11 0.10 76 1016.4
20260903170037 78 194 6.0 12.0 0.00 0.11 0.10 79 1016.3
20260903165535 78 174 8.0 13.0 0.00 0.38 0.10 79 1016.5
20260903165034 77 191 9.0 13.0 0.00 0.38 0.10 82 1016.5
20260903164557 76 176 7.0 12.0 0.00 0.38 0.10 83 1016.7
20260903164034 76 186 5.0 12.0 0.00 0.38 0.10 83 1016.7
20260903163529 75 207 8.0 12.0 0.00 0.38 0.10 84 1016.8
20260903163055 75 232 7.0 10.0 0.00 0.38 0.10 84 1017.0
20260903162555 75 187 7.0 10.0 0.00 0.38 0.10 85 1017.0
20260903162034 75 173 6.0 9.0 0.00 0.38 0.10 86 1016.9
20260903161551 75 220 3.0 12.0 0.00 0.38 0.10 86 1017.0
20260903161054 74 192 8.0 12.0 0.00 0.38 0.10 85 1017.0
20260903160553 74 183 9.0 12.0 0.00 0.38 0.10 89 1017.1
20260903160031 73 267 7.0 12.0 0.00 0.38 0.10 89 1017.1
20260903155529 73 184 8.0 11.0 0.00 0.42 0.10 89 1017.4
20260903155028 73 183 6.0 13.0 0.00 0.42 0.10 89 1017.6
20260903154529 73 205 5.0 13.0 0.01 0.42 0.10 90 1017.8
20260903154027 73 224 4.0 14.0 0.01 0.42 0.10 90 1017.9
20260903153525 73 210 4.0 16.0 0.01 0.42 0.10 89 1018.1
20260903153043 73 240 7.0 16.0 0.02 0.42 0.10 90 1018.2
20260903152540 73 252 6.0 12.0 0.03 0.42 0.10 90 1018.1
20260903152039 73 221 3.0 11.0 0.04 0.42 0.10 91 1018.0
20260903151538 72 220 4.0 9.0 0.05 0.42 0.10 91 1017.6
20260903151100 72 198 2.0 9.0 0.06 0.42 0.10 92 1017.5
20260903150603 72 207 5.0 9.0 0.08 0.42 0.10 91 1017.1
20260903150040 72 146 6.0 9.0 0.08 0.42 0.10 91 1016.8